Powrót do katalogu

STARLINK-36189

AktywnyŁącznośćVLEO
NORAD 67010·PAYLOAD·🇺🇸 United States

Wystrzelony Dec 10, 2025 z Vandenberg Space Force Base

Loading…

Następne Przeloty (najbliższe 24 godziny)

TLE

ŚwieżeSource: CelesTrak SupGP

Epoka: Sep 15, 2026, 03:37 UTC

1 67010C 25293H   26258.15118056  .00052425  00000+0  43927-2 0  2587
2 67010  70.0021 336.5806 0003536 266.7375  24.7123 14.98309046    14

Śledź STARLINK-36189 w czasie rzeczywistym z AllMySat

Download on the App Store